This is the latest recevied weather packets stored in our database for station/object XE1E-15. If no packets are shown the sender has not sent any weather packets the latest 10 day(s).
| Time | Temp. | Humidity | Pressure | Rain* | Wind** | Luminosity | Snow |
|---|---|---|---|---|---|---|---|
| 1777650464 | 31.11° C | 25% | 1021.4 hPa | - | - | - | - |
| 1777649504 | 30° C | 26% | 1021.5 hPa | - | - | - | - |
| 1777648544 | 28.33° C | 27% | 1021.4 hPa | - | - | - | - |
| 1777645663 | 26.67° C | 28% | 1021.5 hPa | - | - | - | - |
| 1777644703 | 26.11° C | 30% | 1021.4 hPa | - | - | - | - |
| 1777643743 | 25.56° C | 30% | 1021.3 hPa | - | - | - | - |
| 1777642305 | 25° C | 31% | 1021.3 hPa | - | - | - | - |
| 1777641345 | 23.89° C | 32% | 1021.2 hPa | - | - | - | - |
| 1777637504 | 23.33° C | 33% | 1020.7 hPa | - | - | - | - |
| 1777635584 | 23.89° C | 33% | 1020.5 hPa | - | - | - | - |
| 1777634624 | 24.44° C | 32% | 1020.3 hPa | - | - | - | - |
| 1777633664 | 23.89° C | 32% | 1020.2 hPa | - | - | - | - |
| 1777632704 | 23.89° C | 32% | 1020.1 hPa | - | - | - | - |
| 1777631744 | 23.89° C | 32% | 1019.9 hPa | - | - | - | - |
| 1777630784 | 24.44° C | 32% | 1019.7 hPa | - | - | - | - |
| 1777629824 | 24.44° C | 32% | 1019.7 hPa | - | - | - | - |
| 1777628863 | 24.44° C | 31% | 1019.8 hPa | - | - | - | - |
| 1777627937 | 24.44° C | 32% | 1019.8 hPa | - | - | - | - |
| 1777627903 | 24.44° C | 32% | 1019.8 hPa | - | - | - | - |
| 1777626943 | 24.44° C | 31% | 1019.9 hPa | - | - | - | - |
| 1777625983 | 25° C | 31% | 1019.9 hPa | - | - | - | - |
| 1777625022 | 25° C | 31% | 1020 hPa | - | - | - | - |
| 1777624062 | 25° C | 30% | 1020 hPa | - | - | - | - |
| 1777623136 | 25° C | 30% | 1020.2 hPa | - | - | - | - |
| 1777623102 | 25° C | 30% | 1020.2 hPa | - | - | - | - |
* Rain since midnight (hover to see other rain measurements)
** Current wind speed in m/s (hover to see current wind gust speed)